Regional Weather Roundup
Issued by NWS

Home | Current Version | Previous Version | Graphics & Text | Print | Product List | Glossary On
Versions: 1 2 3 4 5 6 7 8 9 10 11 12 13 14 15 16 17 18 19 20 21 22 23 24 25 26 27 28 29 30 31 32 33 34 35 36 37 38 39 40 41 42 43 44 45 46 47 48 49 50
000
ASUS43 KFSD 200502
RWRSD

WEATHER ROUNDUP FOR SOUTH DAKOTA
NATIONAL WEATHER SERVICE SIOUX FALLS SD
1100 PM CST MON FEB 19 2018

NOTE: "FAIR" INDICATES FEW OR NO CLOUDS BELOW 12,000 FEET WITH NO
SIGNIFICANT WEATHER AND/OR OBSTRUCTIONS TO VISIBILITY.


SDZ001>005-009-010-012>017-200600-
NORTHWEST AND NORTH CENTRAL SOUTH DAKOTA

CITY           SKY/WX    TMP DP  RH WIND       PRES   REMARKS
BUFFALO          N/A      1  -5  75 N8        29.91F WCI -13
FAITH            N/A      0  -2  91 N14       30.02S WCI -19
MOBRIDGE       CLOUDY     5  -2  72 N13       30.03S WCI -12
$$

SDZ012>016-024>037-041>051-057-063-072>074-200600-
SOUTHWEST AND SOUTH CENTRAL SOUTH DAKOTA

CITY           SKY/WX    TMP DP  RH WIND       PRES   REMARKS
RAPID CTY ARPT LGT SNOW  -1  -6  79 NW14      30.00R WCI -20
PIERRE         LGT SNOW   4   1  88 NE14      30.04F FOG     WCI -14
CUSTER         LGT SNOW  -3  -9  75 CALM      29.73R
ELLSWORTH AFB  CLOUDY     0  -4  85 N10       29.99  WCI -17
PHILIP         LGT SNOW   3   0  87 N12       30.06R FOG     WCI -13
PINE RIDGE     LGT SNOW   0  -5  79 N7        29.94F VSB 1   WCI -13
SPEARFISH        N/A     -4  -9  77 CALM      29.94R
WINNER         LGT SNOW   7   2  80 N14       30.00R VSB 1   WCI -10
$$

SDZ004>011-016>023-039-040-200600-
NORTHEAST SOUTH DAKOTA

CITY           SKY/WX    TMP DP  RH WIND       PRES   REMARKS
ABERDEEN       FOG        4   0  83 N18       30.06F VSB 3/4 WCI -16
WATERTOWN      LGT SNOW   5   2  87 N17       29.93S FOG     WCI -14
BROOKINGS      LGT SNOW  10   6  84 N13       29.94R FOG     WCI  -5
SISSETON         N/A      5   2  87 N20       30.04R WCI -15
$$

SDZ017-020-022-023-036>040-048>070-200600-
SOUTHEAST SOUTH DAKOTA

CITY           SKY/WX    TMP DP  RH WIND       PRES   REMARKS
SIOUX FALLS    LGT SNOW  15  11  83 N10       29.91R FOG     WCI   2
HURON          LGT SNOW   6   2  83 N16       30.01R FOG     WCI -12
CHAMBERLAIN    CLOUDY     7   4  86 N14G20    29.97F WCI  -9
MITCHELL       CLOUDY    10   6  84 N18       29.99F WCI  -8
YANKTON        FLURRIES  15  12  88 N13       29.92F WCI   1
$$

ABBREVIATIONS USED IN REMARKS
   TC - TEMPERATURE IN CELSIUS
  WCI - WIND CHILL INDEX
   HX - HEAT INDEX
  VSB - VISIBILITY




USA.gov is the U.S. government's official web portal to all federal, state and local government web resources and services.